Location: McCall
(45.0000°N, 116.0000°W)
Time: 05:11:10
(UTC-06:00)

Amateur Radio Satellites - All Passes

Search period start: 18 October 2017 04:41
Search period end: 19 October 2017 04:41
Location: McCall, 45.0000°N, 116.0000°W

Satellite Date Start Highest point End Downlink Frequencies (MHz)
Time Altitude Azimuth
MOZHAYETS 4 18 Oct 04:55:01 04:59:10 32° 264° (W) 05:03:19
CUBESAT XI-V 18 Oct 04:58:26 05:03:02 67° 74° (ENE) 05:07:38 437.345
ITUPSAT 1 18 Oct 04:58:54 05:03:13 33° 263° (W) 05:07:35 437.325
KKS-1 18 Oct 05:04:55 05:08:33 26° 65° (ENE) 05:12:14 437.445
RS-15 18 Oct 05:06:49 05:18:12 40° 331° (NNW) 05:29:25 29.354- 29.394
AO-7 18 Oct 05:07:08 05:15:18 57° 103° (ESE) 05:23:26 .
BEESAT 18 Oct 05:17:01 05:20:44 22° 267° (W) 05:24:30 436.000
STARS 18 Oct 05:45:06 05:48:48 27° 66° (ENE) 05:52:32 437.465
Gurwin Techsat 1B 18 Oct 05:53:13 05:53:42 10° 307° (NW) 05:54:12 435.225
NO-84 18 Oct 05:55:03 05:59:21 79° 324° (NW) 06:03:32 435.350 FM
ITAMSAT 1 18 Oct 06:05:46 06:10:54 56° 290° (WNW) 06:16:00 435.822/435.867
DOVE 4 18 Oct 06:17:29 06:21:55 32° 96° (E) 06:26:30 437.250
O/OREOS (USA 219) 18 Oct 06:27:30 06:30:07 15° 48° (NE) 06:32:44 437.305
STRAND 1 18 Oct 06:28:21 06:28:46 10° 53° (NE) 06:29:12 437.568
CUBESAT XI-V 18 Oct 06:38:27 06:40:51 14° 271° (W) 06:43:15 437.345
KKS-1 18 Oct 06:40:56 06:44:58 34° 263° (W) 06:49:03 437.445
XW-2C 18 Oct 06:57:42 07:00:07 16° 92° (E) 07:02:30 145.795 - 145.815
AO-7 18 Oct 07:00:21 07:07:46 38° 303° (WNW) 07:15:11 .
STARS 18 Oct 07:21:08 07:25:02 31° 263° (W) 07:29:00 437.465
RS-15 18 Oct 07:24:51 07:35:09 29° 5° (N) 07:45:07 29.354- 29.394
NO-84 18 Oct 07:33:42 07:37:17 25° 343° (NNW) 07:40:42 435.350 FM
HO-68 18 Oct 07:40:27 07:45:36 21° 90° (E) 07:50:43 435.675
LilacSat-2 18 Oct 07:43:40 07:47:25 61° 101° (E) 07:51:07 437.200
XW-2F 18 Oct 07:43:59 07:47:39 53° 100° (E) 07:51:17 145.980 - 146.000
KAITUO 1B 18 Oct 07:46:42 07:50:15 43° 99° (E) 07:53:46 145.475/437.950
XW-2D 18 Oct 07:54:15 07:58:01 80° 100° (E) 08:01:45 145.860 - 145.880
SO-50 18 Oct 07:54:28 07:58:04 24° 114° (ESE) 08:01:42 436.795
DOVE 4 18 Oct 07:55:11 07:59:32 33° 292° (WNW) 08:04:05 437.250
CUTE-I 18 Oct 07:56:17 08:01:36 58° 101° (E) 08:06:53 437.470
STRAND 1 18 Oct 08:01:53 08:06:57 65° 72° (ENE) 08:12:04 437.568
NUDT-PHONESAT 18 Oct 08:05:06 08:08:47 73° 103° (ESE) 08:12:25 437.300
FO-29 18 Oct 08:05:16 08:07:50 14° 53° (NE) 08:10:28 435.910
O/OREOS (USA 219) 18 Oct 08:05:32 08:10:10 82° 248° (WSW) 08:14:45 437.305
XW-2B 18 Oct 08:07:39 08:11:24 74° 284° (WNW) 08:15:07 145.730 - 145.750
CUTE 1.7 + AOD 2 18 Oct 08:24:19 08:28:11 34° 97° (E) 08:32:02 437.475
XW-2C 18 Oct 08:30:58 08:34:27 37° 289° (WNW) 08:37:55 145.795 - 145.815
SEEDS 18 Oct 08:36:30 08:40:09 29° 95° (E) 08:43:48 437.485
XW-2A 18 Oct 08:45:01 08:47:25 18° 94° (E) 08:49:47 145.665 - 145.685
AO-7 18 Oct 08:57:05 08:58:10 10° 327° (NNW) 08:59:15 .
CUBEBUG 2 18 Oct 08:58:35 09:03:09 49° 98° (E) 09:07:34 437.445
AO-73 18 Oct 09:05:45 09:08:30 16° 90° (E) 09:11:12 145.935
AAUSAT CUBESAT 2 18 Oct 09:08:01 09:11:36 28° 95° (E) 09:15:12 437.432
NO-84 18 Oct 09:12:42 09:15:43 19° 4° (N) 09:18:36 435.350 FM
XW-2F 18 Oct 09:19:37 09:21:19 13° 297° (WNW) 09:23:02 145.980 - 146.000
LilacSat-2 18 Oct 09:19:49 09:21:11 12° 298° (WNW) 09:22:33 437.200
KAITUO 1B 18 Oct 09:21:47 09:23:52 15° 296° (WNW) 09:25:57 145.475/437.950
ZACube-1 18 Oct 09:25:26 09:29:19 29° 95° (E) 09:33:04 437.345
HO-68 18 Oct 09:26:51 09:34:05 81° 289° (WNW) 09:41:17 435.675
SO-50 18 Oct 09:33:59 09:38:17 44° 312° (NW) 09:42:38 436.795
CUTE-I 18 Oct 09:37:09 09:41:13 22° 299° (WNW) 09:45:17 437.470
UNISAT 6 18 Oct 09:38:39 09:42:12 22° 64° (ENE) 09:45:47 437.425
RS-15 18 Oct 09:39:46 09:51:27 50° 38° (NE) 10:02:31 29.354- 29.394
UWE-3 18 Oct 09:41:53 09:46:29 80° 103° (ESE) 09:50:54 435.000/436.395/437.385
STRAND 1 18 Oct 09:43:17 09:46:35 17° 270° (W) 09:49:54 437.568
FO-29 18 Oct 09:46:47 09:51:59 87° 75° (ENE) 09:57:35 435.910
PCSat 18 Oct 09:47:50 09:53:04 52° 115° (ESE) 09:58:20 145.827
TIGRISAT 18 Oct 09:53:41 09:57:37 28° 66° (ENE) 10:01:34 435.000
PRISM 18 Oct 09:54:37 09:56:27 13° 61° (ENE) 09:58:18 437.425
CUTE 1.7 + AOD 2 18 Oct 10:00:32 10:03:51 23° 294° (WNW) 10:07:07 437.475
YUBILEINY 18 Oct 10:06:02 10:13:58 42° 86° (E) 10:21:56 435.215
Oscar 11 18 Oct 10:06:20 10:10:31 47° 99° (E) 10:14:39 .
SEEDS 18 Oct 10:12:16 10:15:45 26° 292° (WNW) 10:19:13 437.485
XW-2A 18 Oct 10:17:18 10:20:08 26° 290° (WNW) 10:22:57 145.665 - 145.685
CUBEBUG 2 18 Oct 10:35:57 10:39:23 20° 297° (WNW) 10:42:44 437.445
AO-73 18 Oct 10:40:47 10:45:03 51° 288° (WNW) 10:49:12 145.935
AAUSAT CUBESAT 2 18 Oct 10:43:32 10:46:59 26° 292° (WNW) 10:50:25 437.432
EO-88 18 Oct 10:44:59 10:46:47 13° 91° (E) 10:48:36 145.990 - 145.960
Max Valier Satellite 18 Oct 10:48:29 10:51:18 20° 94° (E) 10:54:04 145.860
NO-84 18 Oct 10:50:20 10:54:00 36° 25° (NNE) 10:57:23 435.350 FM
DELFI C3 18 Oct 10:58:10 11:01:53 38° 98° (E) 11:05:35 145.870
ZACube-1 18 Oct 11:01:43 11:05:32 29° 293° (WNW) 11:09:15 437.345
UNISAT 6 18 Oct 11:14:09 11:18:35 46° 261° (W) 11:23:08 437.425
HO-68 18 Oct 11:16:05 11:20:45 19° 309° (NW) 11:25:26 435.675
SO-50 18 Oct 11:18:30 11:19:54 11° 334° (NNW) 11:21:19 436.795
UWE-3 18 Oct 11:20:13 11:22:14 13° 301° (WNW) 11:24:14 435.000/436.395/437.385
PRISM 18 Oct 11:27:12 11:31:12 65° 258° (WSW) 11:35:15 437.425
QB50P2 18 Oct 11:29:51 11:32:26 16° 62° (ENE) 11:35:02 145.880/145.840
TIGRISAT 18 Oct 11:29:54 11:34:09 35° 264° (W) 11:38:28 435.000
PCSat 18 Oct 11:32:01 11:36:44 29° 315° (NW) 11:41:28 145.827
NANOSAT C BR1 18 Oct 11:35:45 11:38:08 15° 62° (ENE) 11:40:32 145.865
FO-29 18 Oct 11:36:17 11:38:05 12° 275° (W) 11:39:54 435.910
Oscar 11 18 Oct 11:43:20 11:46:18 18° 296° (WNW) 11:49:14 .
DUCHIFAT 1 18 Oct 11:47:24 11:50:09 17° 63° (ENE) 11:52:55 145.980
nSIGHT-1 18 Oct 11:47:34 11:50:26 30° 140° (SE) 11:53:18 .
RS-15 18 Oct 11:52:47 12:04:27 64° 244° (WSW) 12:15:29 29.354- 29.394
YUBILEINY 18 Oct 12:02:22 12:10:39 47° 287° (WNW) 12:19:01 435.215
AIST 2D 18 Oct 12:04:48 12:08:19 78° 77° (ENE) 12:11:50 435.315
ISS 18 Oct 12:14:12 12:17:20 47° 144° (SE) 12:20:30 437.550
EO-88 18 Oct 12:17:13 12:20:41 43° 287° (WNW) 12:24:07 145.990 - 145.960
Max Valier Satellite 18 Oct 12:21:56 12:25:09 29° 290° (WNW) 12:28:19 145.860
NO-84 18 Oct 12:27:54 12:31:25 39° 226° (SW) 12:34:39 435.350 FM
DELFI C3 18 Oct 12:33:33 12:36:22 19° 295° (WNW) 12:39:11 145.870
EO-79 18 Oct 12:39:18 12:43:32 72° 75° (ENE) 12:47:50 145.935-145.965
POLYITAN 1 18 Oct 12:43:20 12:47:36 79° 76° (ENE) 12:51:56 437.675
SPROUT 18 Oct 12:56:56 12:58:16 11° 88° (E) 12:59:35 437.525
QB50P2 18 Oct 13:03:34 13:07:46 56° 259° (W) 13:12:01 145.880/145.840
NANOSAT C BR1 18 Oct 13:09:09 13:13:21 61° 259° (W) 13:17:36 145.865
LO-87 18 Oct 13:13:58 13:17:37 71° 285° (WNW) 13:21:12 145.935 - 145.965
M-CUBED/EXP-1 PRIME 18 Oct 13:15:49 13:18:21 20° 62° (ENE) 13:20:51 437.505
DUCHIFAT 1 18 Oct 13:21:18 13:25:25 51° 260° (W) 13:29:36 145.980
ESTCUBE 1 18 Oct 13:22:28 13:26:59 82° 104° (ESE) 13:31:27 437.505/2401.250
VELOX 1 18 Oct 13:23:16 13:25:55 15° 91° (E) 13:28:32 145.980
nSIGHT-1 18 Oct 13:23:32 13:26:37 45° 338° (NNW) 13:29:44 .
BEESAT 3 18 Oct 13:33:32 13:37:15 38° 118° (ESE) 13:41:00 437.485
BUGSAT 1 18 Oct 13:37:49 13:41:57 64° 73° (ENE) 13:46:09 437.445
Oscar 19 18 Oct 13:39:42 13:44:27 38° 67° (ENE) 13:49:12 437.125/150
ISS 18 Oct 13:50:50 13:53:53 36° 342° (NNW) 13:56:58 437.550
Gurwin Techsat 1B 18 Oct 13:53:20 13:58:09 36° 66° (ENE) 14:02:59 435.225
RS-15 18 Oct 14:09:01 14:14:08 14° 267° (W) 14:19:10 29.354- 29.394
AO-7 18 Oct 14:18:26 14:24:34 24° 49° (NE) 14:30:43 .
EO-79 18 Oct 14:18:26 14:19:47 11° 272° (W) 14:21:09 145.935-145.965
POLYITAN 1 18 Oct 14:23:24 14:23:56 10° 272° (W) 14:24:29 437.675
50 SAT 18 Oct 14:29:19 14:31:45 19° 95° (E) 14:34:08 437.505
SPROUT 18 Oct 14:30:21 14:34:40 73° 285° (WNW) 14:38:55 437.525
DX 1 18 Oct 14:36:01 14:39:26 22° 94° (E) 14:42:51 434.975-435.025
SO-50 18 Oct 14:44:13 14:45:27 11° 25° (NNE) 14:46:42 436.795
BEESAT 2 18 Oct 14:48:34 14:52:34 71° 123° (ESE) 14:56:37 435.950
M-CUBED/EXP-1 PRIME 18 Oct 14:49:50 14:52:43 25° 258° (WSW) 14:55:31 437.505
AO-85 18 Oct 14:56:22 15:00:10 56° 120° (ESE) 15:04:05 145.980
VELOX 1 18 Oct 14:58:20 15:02:42 56° 287° (WNW) 15:07:03 145.980
nSIGHT-1 18 Oct 15:00:44 15:03:26 24° 358° (N) 15:06:07 .
ESTCUBE 1 18 Oct 15:01:18 15:03:07 12° 301° (WNW) 15:04:56 437.505/2401.250
UKube-1 18 Oct 15:04:27 15:08:11 28° 96° (E) 15:11:53 .
BEESAT 3 18 Oct 15:11:28 15:14:53 26° 316° (NW) 15:18:20 437.485
BUGSAT 1 18 Oct 15:15:59 15:17:44 12° 271° (W) 15:19:30 437.445
Oscar 19 18 Oct 15:19:21 15:23:50 29° 265° (W) 15:28:20 437.125/150
ISS 18 Oct 15:28:12 15:30:57 24° 2° (N) 15:33:44 437.550
Gurwin Techsat 1B 18 Oct 15:33:22 15:38:06 32° 264° (W) 15:42:52 435.225
ITAMSAT 1 18 Oct 15:46:44 15:51:30 39° 67° (ENE) 15:56:19 435.822/435.867
50 SAT 18 Oct 16:01:17 16:04:02 25° 291° (WNW) 16:06:48 437.505
AO-7 18 Oct 16:07:58 16:16:17 87° 70° (ENE) 16:24:38 .
DX 1 18 Oct 16:11:41 16:15:44 38° 291° (WNW) 16:19:47 434.975-435.025
SO-50 18 Oct 16:22:46 16:27:08 41° 47° (NE) 16:31:33 436.795
BEESAT 2 18 Oct 16:27:59 16:30:45 18° 322° (NW) 16:33:33 435.950
nSIGHT-1 18 Oct 16:37:17 16:40:18 36° 18° (NNE) 16:43:18 .
AO-85 18 Oct 16:38:01 16:40:54 19° 322° (NW) 16:43:52 145.980
UKube-1 18 Oct 16:40:24 16:44:10 30° 293° (WNW) 16:47:55 .
MOZHAYETS 4 18 Oct 16:47:20 16:51:49 50° 99° (E) 16:56:15
PCSat 18 Oct 16:51:20 16:54:31 15° 33° (NNE) 16:57:42 145.827
CUBESAT XI-V 18 Oct 16:54:22 16:56:48 14° 89° (E) 16:59:14 437.345
ITUPSAT 1 18 Oct 16:56:40 17:01:23 53° 101° (E) 17:06:03 437.325
ISS 18 Oct 17:04:46 17:07:58 46° 23° (NNE) 17:11:08 437.550
BEESAT 18 Oct 17:13:34 17:18:24 79° 105° (ESE) 17:23:10 436.000
DOVE 4 18 Oct 17:25:19 17:29:06 34° 68° (ENE) 17:33:01 437.250
ITAMSAT 1 18 Oct 17:26:33 17:31:02 29° 265° (W) 17:35:34 435.822/435.867
XW-2C 18 Oct 17:41:54 17:43:22 12° 62° (ENE) 17:44:48 145.795 - 145.815
CUTE-I 18 Oct 17:42:34 17:46:00 18° 58° (ENE) 17:49:26 437.470
SO-50 18 Oct 18:03:30 18:07:27 28° 245° (WSW) 18:11:25 436.795
AO-7 18 Oct 18:04:08 18:10:02 21° 269° (W) 18:16:00 .
HO-68 18 Oct 18:12:08 18:17:12 21° 53° (NE) 18:22:17 435.675
nSIGHT-1 18 Oct 18:13:33 18:16:39 46° 217° (SW) 18:19:44 .
MOZHAYETS 4 18 Oct 18:25:21 18:28:36 19° 297° (WNW) 18:31:50
XW-2F 18 Oct 18:26:24 18:29:49 33° 71° (ENE) 18:33:14 145.980 - 146.000
LilacSat-2 18 Oct 18:27:05 18:30:39 39° 71° (ENE) 18:34:14 437.200
KAITUO 1B 18 Oct 18:28:23 18:31:34 27° 69° (ENE) 18:34:46 145.475/437.950
KKS-1 18 Oct 18:29:20 18:33:30 37° 98° (E) 18:37:40 437.445
CUBESAT XI-V 18 Oct 18:30:03 18:34:37 65° 287° (WNW) 18:39:10 437.345
PCSat 18 Oct 18:33:36 18:39:01 64° 55° (NE) 18:44:23 145.827
ITUPSAT 1 18 Oct 18:35:21 18:38:49 20° 298° (WNW) 18:42:17 437.325
XW-2D 18 Oct 18:36:52 18:40:32 48° 73° (ENE) 18:44:12 145.860 - 145.880
ISS 18 Oct 18:41:25 18:44:21 31° 220° (SW) 18:47:17 437.550
NUDT-PHONESAT 18 Oct 18:45:36 18:49:06 41° 72° (ENE) 18:52:37 437.300
XW-2B 18 Oct 18:50:07 18:53:54 67° 75° (ENE) 18:57:41 145.730 - 145.750
BEESAT 18 Oct 18:53:00 18:55:31 14° 302° (WNW) 18:58:02 436.000
DOVE 4 18 Oct 19:03:38 19:06:54 22° 267° (W) 19:10:17 437.250
UWE-3 18 Oct 19:07:46 19:08:51 11° 57° (ENE) 19:09:57 435.000/436.395/437.385
STARS 18 Oct 19:07:48 19:11:59 38° 98° (E) 19:16:07 437.465
XW-2C 18 Oct 19:13:17 19:17:03 62° 260° (W) 19:20:49 145.795 - 145.815
CUTE 1.7 + AOD 2 18 Oct 19:18:38 19:22:23 32° 69° (ENE) 19:26:09 437.475
CUTE-I 18 Oct 19:20:07 19:25:25 75° 257° (WSW) 19:30:47 437.470
SEEDS 18 Oct 19:29:56 19:33:25 26° 68° (ENE) 19:36:54 437.485
HO-68 18 Oct 19:56:51 20:04:02 90° 262° (W) 20:11:17 435.675
CUBEBUG 2 18 Oct 19:57:48 20:02:18 51° 72° (ENE) 20:06:55 437.445
AAUSAT CUBESAT 2 18 Oct 19:59:57 20:03:18 25° 67° (ENE) 20:06:38 437.432
XW-2F 18 Oct 20:01:17 20:04:01 19° 267° (W) 20:06:45 145.980 - 146.000
KAITUO 1B 18 Oct 20:02:35 20:05:33 22° 266° (W) 20:08:31 145.475/437.950
LilacSat-2 18 Oct 20:02:35 20:05:05 17° 268° (W) 20:07:35 437.200
AO-73 18 Oct 20:02:48 20:05:53 18° 63° (ENE) 20:08:59 145.935
KKS-1 18 Oct 20:06:15 20:09:53 25° 295° (WNW) 20:13:30 437.445
STRAND 1 18 Oct 20:11:17 20:14:55 19° 91° (E) 20:18:32 437.568
XW-2D 18 Oct 20:13:06 20:14:58 13° 269° (W) 20:16:51 145.860 - 145.880
YUBILEINY 18 Oct 20:13:28 20:20:12 24° 61° (ENE) 20:26:54 435.215
PCSat 18 Oct 20:17:59 20:21:54 21° 254° (WSW) 20:25:48 145.827
NUDT-PHONESAT 18 Oct 20:21:00 20:23:09 15° 269° (W) 20:25:19 437.300
ZACube-1 18 Oct 20:22:33 20:26:33 30° 68° (ENE) 20:30:33 437.345
UWE-3 18 Oct 20:39:50 20:44:28 79° 76° (ENE) 20:49:11 435.000/436.395/437.385
STARS 18 Oct 20:44:34 20:48:06 23° 295° (WNW) 20:51:36 437.465
XW-2A 18 Oct 20:49:11 20:52:35 61° 259° (W) 20:55:59 145.665 - 145.685
FO-29 18 Oct 20:54:32 20:57:25 13° 86° (E) 21:00:23 435.910
CUTE 1.7 + AOD 2 18 Oct 20:54:46 20:58:15 24° 266° (W) 21:01:44 437.475
Oscar 11 18 Oct 21:02:36 21:06:45 46° 71° (ENE) 21:10:54 .
SEEDS 18 Oct 21:05:22 21:09:01 29° 264° (W) 21:12:41 437.485
BEESAT 2 18 Oct 21:27:51 21:29:58 14° 34° (NE) 21:32:05 435.950
Max Valier Satellite 18 Oct 21:29:57 21:31:53 14° 63° (ENE) 21:33:48 145.860
AAUSAT CUBESAT 2 18 Oct 21:35:00 21:38:37 30° 264° (W) 21:42:17 437.432
CUBEBUG 2 18 Oct 21:35:53 21:39:11 19° 269° (W) 21:42:34 437.445
AO-73 18 Oct 21:37:14 21:41:42 55° 260° (W) 21:46:13 145.935
DELFI C3 18 Oct 21:45:15 21:48:35 28° 69° (ENE) 21:51:58 145.870
AO-85 18 Oct 21:45:19 21:48:14 17° 36° (NE) 21:51:17 145.980
BEESAT 3 18 Oct 21:48:09 21:51:58 42° 49° (NE) 21:55:43 437.485
HO-68 18 Oct 21:48:11 21:52:41 17° 272° (W) 21:57:14 435.675
STRAND 1 18 Oct 21:49:23 21:54:29 59° 289° (WNW) 21:59:32 437.568
ZACube-1 18 Oct 21:58:43 22:02:45 30° 265° (W) 22:06:49 437.345
YUBILEINY 18 Oct 22:09:20 22:18:10 85° 264° (W) 22:27:00 435.215
O/OREOS (USA 219) 18 Oct 22:19:25 22:23:58 81° 112° (ESE) 22:28:36 437.305
UWE-3 18 Oct 22:19:43 22:21:29 12° 273° (W) 22:23:16 435.000/436.395/437.385
FO-29 18 Oct 22:36:35 22:43:21 70° 103° (ESE) 22:50:51 435.910
Oscar 11 18 Oct 22:40:08 22:43:07 18° 268° (W) 22:46:06 .
ESTCUBE 1 18 Oct 22:50:15 22:51:51 12° 58° (ENE) 22:53:26 437.505/2401.250
EO-88 18 Oct 22:55:55 22:59:34 81° 257° (WSW) 23:03:14 145.990 - 145.960
Max Valier Satellite 18 Oct 23:01:39 23:05:18 49° 261° (W) 23:08:56 145.860
UNISAT 6 18 Oct 23:03:52 23:08:04 33° 96° (E) 23:12:11 437.425
BEESAT 2 18 Oct 23:04:19 23:08:23 78° 54° (NE) 23:12:23 435.950
PRISM 18 Oct 23:07:33 23:09:51 14° 91° (E) 23:12:08 437.425
TIGRISAT 18 Oct 23:19:02 23:23:29 43° 98° (E) 23:27:48 435.000
DELFI C3 18 Oct 23:20:09 23:23:19 24° 266° (W) 23:26:32 145.870
AO-85 18 Oct 23:24:41 23:29:13 87° 54° (NE) 23:34:06 145.980
BEESAT 3 18 Oct 23:26:18 23:29:14 20° 247° (WSW) 23:32:07 437.485
LO-87 18 Oct 23:51:14 23:54:45 58° 74° (ENE) 23:58:19 145.935 - 145.965
SPROUT 18 Oct 23:52:11 23:53:56 12° 60° (ENE) 23:55:41 437.525
O/OREOS (USA 219) 19 Oct 00:01:25 00:04:01 15° 312° (NW) 00:06:38 437.305
YUBILEINY 19 Oct 00:08:08 00:13:37 19° 284° (WNW) 00:19:06 435.215
RS-15 19 Oct 00:10:06 00:17:45 19° 96° (E) 00:25:23 29.354- 29.394
VELOX 1 19 Oct 00:22:20 00:25:19 18° 63° (ENE) 00:28:19 145.980
FO-29 19 Oct 00:22:34 00:27:57 27° 299° (WNW) 00:33:47 435.910
ESTCUBE 1 19 Oct 00:23:27 00:27:58 87° 260° (W) 00:32:29 437.505/2401.250
POLYITAN 1 19 Oct 00:28:26 00:29:44 11° 88° (E) 00:31:02 437.675
UNISAT 6 19 Oct 00:40:42 00:44:40 28° 294° (WNW) 00:48:32 437.425
PRISM 19 Oct 00:41:24 00:45:25 52° 288° (WNW) 00:49:26 437.425
BEESAT 2 19 Oct 00:44:21 00:45:29 11° 252° (WSW) 00:46:37 435.950
QB50P2 19 Oct 00:47:00 00:50:11 20° 93° (E) 00:53:21 145.880/145.840
NANOSAT C BR1 19 Oct 00:52:10 00:55:09 18° 92° (E) 00:58:07 145.865
TIGRISAT 19 Oct 00:56:17 00:59:52 22° 296° (WNW) 01:03:23 435.000
AIST 2D 19 Oct 01:00:41 01:04:09 73° 102° (ESE) 01:07:37 435.315
DUCHIFAT 1 19 Oct 01:03:40 01:06:57 21° 93° (E) 01:10:11 145.980
AO-85 19 Oct 01:07:02 01:09:06 13° 251° (WSW) 01:11:14 145.980
SPROUT 19 Oct 01:24:56 01:29:12 77° 259° (WSW) 01:33:31 437.525
DX 1 19 Oct 01:33:18 01:36:50 25° 66° (ENE) 01:40:23 434.975-435.025
Oscar 19 19 Oct 01:51:58 01:52:56 10° 87° (E) 01:53:54 437.125/150
VELOX 1 19 Oct 01:57:09 02:01:24 50° 260° (W) 02:05:41 145.980
EO-79 19 Oct 01:57:28 02:01:45 80° 286° (WNW) 02:06:00 145.935-145.965
UKube-1 19 Oct 02:00:32 02:04:19 30° 67° (ENE) 02:08:05 .
POLYITAN 1 19 Oct 02:01:44 02:06:01 72° 286° (WNW) 02:10:15 437.675
Gurwin Techsat 1B 19 Oct 02:09:37 02:11:19 11° 87° (E) 02:13:01 435.225
RS-15 19 Oct 02:15:50 02:28:02 74° 119° (ESE) 02:40:14 29.354- 29.394
QB50P2 19 Oct 02:22:07 02:26:07 39° 290° (WNW) 02:30:05 145.880/145.840
M-CUBED/EXP-1 PRIME 19 Oct 02:26:51 02:27:35 10° 97° (E) 02:28:19 437.505
NANOSAT C BR1 19 Oct 02:27:01 02:31:04 43° 289° (WNW) 02:35:04 145.865
50 SAT 19 Oct 02:30:51 02:34:04 57° 259° (W) 02:37:19 437.505
ITUPSAT 1 19 Oct 02:31:26 02:32:47 11° 56° (NE) 02:34:07 437.325
DUCHIFAT 1 19 Oct 02:38:47 02:42:43 37° 291° (WNW) 02:46:36 145.980
BEESAT 19 Oct 02:46:24 02:49:11 16° 59° (ENE) 02:51:58 436.000
BUGSAT 1 19 Oct 02:52:37 02:56:54 85° 104° (ESE) 03:01:05 437.445
DX 1 19 Oct 03:08:57 03:12:52 33° 263° (W) 03:16:50 434.975-435.025
Oscar 19 19 Oct 03:27:52 03:33:02 84° 104° (ESE) 03:38:09 437.125/150
UKube-1 19 Oct 03:36:40 03:40:19 27° 265° (W) 03:43:59 .
NO-84 19 Oct 03:45:09 03:47:33 15° 125° (SE) 03:49:56 435.350 FM
Gurwin Techsat 1B 19 Oct 03:46:41 03:52:02 85° 104° (ESE) 03:57:22 435.225
MOZHAYETS 4 19 Oct 03:50:37 03:55:12 61° 73° (ENE) 03:59:47
M-CUBED/EXP-1 PRIME 19 Oct 03:58:49 04:02:16 58° 291° (WNW) 04:05:55 437.505
CUBESAT XI-V 19 Oct 03:59:18 04:02:30 19° 63° (ENE) 04:05:42 437.345
ITAMSAT 1 19 Oct 04:00:02 04:01:20 11° 87° (E) 04:02:39 435.822/435.867
ITUPSAT 1 19 Oct 04:04:58 04:09:46 78° 74° (ENE) 04:14:36 437.325
AO-7 19 Oct 04:08:12 04:14:46 25° 93° (E) 04:21:17 .
BEESAT 19 Oct 04:21:36 04:26:22 73° 258° (WSW) 04:31:11 436.000
BUGSAT 1 19 Oct 04:30:21 04:31:34 11° 301° (WNW) 04:32:47 437.445
